Wynyard / W.B. Needham Field

Jump to: basic info | weather | frequencies | runways | comments

Related pages: nearby airports | nearby navaids | notams | map

Basic information (top)

Codes: CYYO
Location: lon 51.809888, lat -104.169788, elev 1,740 ft / 530 m msl
Status: small_airport
Scheduled airline service: no
Links: Wikipedia Mobile

Weather (top)

Current conditions for Yorkton Municipal Airport 72nm (133km) ESE (rec'd 2014/07/29 18:00Z):

CYQV 291800Z AUTO 36006KT 320V050 9SM CLR 23/13 A3021 RMK SLP234 DENSITY ALT 2500FT

Airport forecast for Yorkton Municipal Airport 72nm (133km) ESE (rec'd 2014/07/29 18:39Z):

TAF TAF CYQV 291738Z 2918/3006 VRB03KT P6SM SCT050 
     FM292000 36010KT P6SM SCT040 
      TEMPO 2920/2924 P6SM -SHRA BKN040 
     FM300000 01008KT P6SM FEW040 
      BECMG 3002/3004 VRB03KT 
      RMK FCST BASED ON AUTO OBS. NXT FCST BY 300000Z

Frequencies (top)

Verify before use: may be inaccurate or out of date.

ATF: 123.2 MHz (ATF)

Runways (top)

09/27: 3,000 x 75 ft (914 x 23 m) — paved — lighted

Latest comments (top)

Wynyard Airport renamed W.B. Needham Field: The Wynyard Airport was renamed "W.B. ... [read]

More... (top)

See also NOTAMs and nearby airports and navaids, or visit the Wynyard / W.B. Needham Field page at the main OurAirports website..